When you browse on this site, cookies collect data to enhance your experience and personalize the content and advertising you see.
Visit our Privacy Policy to learn more. By continuing to use the site, you agree to this use of cookies and data.
  • în România
  • Lista ţărilor
  • Pe 7 zile
  • Temperatura apei
  • Hartă satelitară
  • Meteo pe hartă
  • Widget-uri
  • user-avatar
    Intrare

    Meteo pe oră la Oran

    Astăzi, 19 Februarie, Marţi

    Timp Temperatura Precipitaţii Vânt Presiune Umiditate
    00:00 +13°C° 0 mm 2 m/s 752 mmHg 55%
    01:00 +13°C° 0 mm 2 m/s 752 mmHg 54%
    02:00 +13°C° 0 mm 2 m/s 752 mmHg 53%
    03:00 +13°C° 0 mm 1 m/s 752 mmHg 52%
    04:00 +13°C° 0 mm 2 m/s 752 mmHg 56%
    05:00 +12°C° 0 mm 2 m/s 752 mmHg 60%
    06:00 +12°C° 0 mm 2 m/s 752 mmHg 64%
    07:00 +13°C° 0 mm 2 m/s 753 mmHg 64%
    08:00 +15°C° 0 mm 2 m/s 753 mmHg 64%
    09:00 +16°C° 0 mm 2 m/s 753 mmHg 64%
    10:00 +17°C° 0 mm 2 m/s 753 mmHg 59%
    11:00 +17°C° 0 mm 2 m/s 753 mmHg 55%
    12:00 +18°C° 0 mm 3 m/s 753 mmHg 50%
    13:00 +18°C° 0 mm 3 m/s 753 mmHg 49%
    14:00 +18°C° 0 mm 4 m/s 753 mmHg 47%
    15:00 +18°C° 0 mm 4 m/s 752 mmHg 46%
    16:00 +17°C° 0 mm 4 m/s 753 mmHg 53%
    17:00 +14°C° 0 mm 4 m/s 753 mmHg 59%
    18:00 +13°C° 0 mm 4 m/s 753 mmHg 65%
    19:00 +12°C° 0 mm 3 m/s 753 mmHg 70%
    20:00 +12°C° 0 mm 2 m/s 754 mmHg 75%
    21:00 +12°C° 0 mm 2 m/s 754 mmHg 80%
    22:00 +10°C° 0 mm 2 m/s 754 mmHg 81%
    23:00 +10°C° 0 mm 2 m/s 755 mmHg 81%

    Mâine, 20 Februarie, Miercuri

    Timp Temperatura Precipitaţii Vânt Presiune Umiditate
    00:00 +11°C° 0 mm 1 m/s 755 mmHg 82%
    01:00 +9°C° 0 mm 2 m/s 755 mmHg 83%
    02:00 +9°C° 0 mm 2 m/s 755 mmHg 83%
    03:00 +9°C° 0 mm 2 m/s 755 mmHg 84%
    04:00 +9°C° 0 mm 2 m/s 755 mmHg 85%
    05:00 +8°C° 0 mm 2 m/s 755 mmHg 85%
    06:00 +8°C° 0 mm 2 m/s 755 mmHg 86%
    07:00 +10°C° 0 mm 2 m/s 756 mmHg 81%
    08:00 +13°C° 0 mm 2 m/s 756 mmHg 75%
    09:00 +14°C° 0 mm 2 m/s 757 mmHg 70%
    10:00 +14°C° 0 mm 3 m/s 757 mmHg 64%
    11:00 +16°C° 0 mm 3 m/s 757 mmHg 59%
    12:00 +17°C° 0 mm 4 m/s 757 mmHg 53%
    13:00 +17°C° 0 mm 4 m/s 757 mmHg 53%
    14:00 +17°C° 0 mm 4 m/s 757 mmHg 53%
    15:00 +16°C° 0 mm 5 m/s 756 mmHg 54%
    16:00 +15°C° 0 mm 5 m/s 757 mmHg 62%
    17:00 +14°C° 0 mm 4 m/s 757 mmHg 70%
    18:00 +12°C° 0 mm 4 m/s 757 mmHg 78%
    19:00 +11°C° 0 mm 3 m/s 758 mmHg 80%
    20:00 +11°C° 0 mm 3 m/s 758 mmHg 83%
    21:00 +10°C° 0 mm 2 m/s 759 mmHg 86%
    22:00 +10°C° 0 mm 2 m/s 759 mmHg 87%
    23:00 +9°C° 0 mm 2 m/s 759 mmHg 87%

    Poimâine, 21 Februarie, Joi

    Timp Temperatura Precipitaţii Vânt Presiune Umiditate
    00:00 +10°C° 0 mm 1 m/s 759 mmHg 87%
    01:00 +9°C° 0 mm 2 m/s 759 mmHg 87%
    02:00 +8°C° 0 mm 2 m/s 759 mmHg 87%
    03:00 +8°C° 0 mm 2 m/s 759 mmHg 87%
    04:00 +8°C° 0 mm 2 m/s 759 mmHg 87%
    05:00 +8°C° 0 mm 2 m/s 759 mmHg 87%
    06:00 +8°C° 0 mm 2 m/s 759 mmHg 87%
    07:00 +9°C° 0 mm 2 m/s 760 mmHg 81%
    08:00 +12°C° 0 mm 2 m/s 760 mmHg 74%
    09:00 +14°C° 0 mm 2 m/s 761 mmHg 67%
    10:00 +15°C° 0 mm 2 m/s 761 mmHg 61%
    11:00 +16°C° 0 mm 3 m/s 761 mmHg 54%
    12:00 +17°C° 0 mm 3 m/s 761 mmHg 47%
    13:00 +17°C° 0 mm 4 m/s 761 mmHg 48%
    14:00 +18°C° 0 mm 4 m/s 761 mmHg 48%
    15:00 +17°C° 0 mm 5 m/s 760 mmHg 48%
    16:00 +15°C° 0 mm 5 m/s 760 mmHg 56%
    17:00 +14°C° 0 mm 5 m/s 761 mmHg 64%
    18:00 +12°C° 0 mm 4 m/s 761 mmHg 72%
    19:00 +12°C° 0 mm 4 m/s 761 mmHg 77%
    20:00 +11°C° 0 mm 4 m/s 762 mmHg 81%
    21:00 +11°C° 0 mm 3 m/s 763 mmHg 85%
    22:00 +10°C° 0 mm 3 m/s 763 mmHg 86%
    23:00 +10°C° 0 mm 3 m/s 763 mmHg 87%

    22 Februarie, Vineri

    Timp Temperatura Precipitaţii Vânt Presiune Umiditate
    00:00 +9°C° 0 mm 2 m/s 763 mmHg 88%
    01:00 +9°C° 0 mm 2 m/s 763 mmHg 88%
    02:00 +9°C° 0 mm 2 m/s 762 mmHg 88%
    03:00 +8°C° 0 mm 2 m/s 762 mmHg 88%
    04:00 +8°C° 0 mm 2 m/s 762 mmHg 88%
    05:00 +8°C° 0 mm 2 m/s 762 mmHg 88%
    06:00 +8°C° 0 mm 2 m/s 762 mmHg 88%
    07:00 +10°C° 0 mm 2 m/s 763 mmHg 81%
    08:00 +12°C° 0 mm 2 m/s 763 mmHg 74%
    09:00 +14°C° 0 mm 2 m/s 763 mmHg 67%
    10:00 +15°C° 0 mm 2 m/s 763 mmHg 60%
    11:00 +17°C° 0 mm 2 m/s 763 mmHg 53%
    12:00 +18°C° 0 mm 2 m/s 763 mmHg 47%
    13:00 +18°C° 0 mm 3 m/s 762 mmHg 46%
    14:00 +18°C° 0 mm 4 m/s 762 mmHg 46%
    15:00 +19°C° 0 mm 4 m/s 761 mmHg 46%
    16:00 +17°C° 0 mm 4 m/s 761 mmHg 55%
    17:00 +14°C° 0 mm 4 m/s 761 mmHg 64%
    18:00 +12°C° 0 mm 3 m/s 761 mmHg 73%
    19:00 +12°C° 0 mm 3 m/s 761 mmHg 76%
    20:00 +12°C° 0 mm 2 m/s 762 mmHg 80%
    21:00 +10°C° 0 mm 2 m/s 762 mmHg 83%
    22:00 +11°C° 0 mm 1 m/s 762 mmHg 83%
    23:00 +10°C° 0 mm 1 m/s 761 mmHg 82%

    23 Februarie, Sâmbătă

    Timp Temperatura Precipitaţii Vânt Presiune Umiditate
    00:00 +10°C° 0 mm 1 m/s 761 mmHg 82%
    01:00 +10°C° 0 mm 1 m/s 761 mmHg 82%
    02:00 +9°C° 0 mm 1 m/s 761 mmHg 81%
    03:00 +9°C° 0 mm 1 m/s 761 mmHg 81%
    04:00 +9°C° 0 mm 1 m/s 761 mmHg 80%
    05:00 +9°C° 0 mm 1 m/s 761 mmHg 80%
    06:00 +9°C° 0 mm 1 m/s 761 mmHg 80%
    07:00 +11°C° 0 mm 1 m/s 761 mmHg 71%
    08:00 +13°C° 0 mm 1 m/s 762 mmHg 62%
    09:00 +15°C° 0 mm 0 m/s 762 mmHg 53%
    10:00 +18°C° 0 mm 1 m/s 762 mmHg 47%
    11:00 +19°C° 0 mm 1 m/s 762 mmHg 41%
    12:00 +19°C° 0 mm 2 m/s 762 mmHg 35%
    13:00 +20°C° 0 mm 2 m/s 762 mmHg 36%
    14:00 +20°C° 0 mm 2 m/s 761 mmHg 37%
    15:00 +20°C° 0 mm 3 m/s 761 mmHg 37%
    16:00 +18°C° 0 mm 3 m/s 761 mmHg 46%
    17:00 +16°C° 0 mm 2 m/s 761 mmHg 55%
    18:00 +13°C° 0 mm 2 m/s 761 mmHg 65%
    19:00 +13°C° 0 mm 2 m/s 761 mmHg 68%
    20:00 +12°C° 0 mm 1 m/s 762 mmHg 72%
    21:00 +11°C° 0 mm 1 m/s 762 mmHg 75%
    22:00 +11°C° 0 mm 1 m/s 762 mmHg 74%
    23:00 +9°C° 0 mm 0 m/s 762 mmHg 72%

    24 Februarie, Duminică

    Timp Temperatura Precipitaţii Vânt Presiune Umiditate
    00:00 +9°C° 0 mm 0 m/s 762 mmHg 70%
    01:00 +9°C° 0 mm 0 m/s 761 mmHg 70%
    02:00 +9°C° 0 mm 0 m/s 761 mmHg 70%
    03:00 +8°C° 0 mm 0 m/s 761 mmHg 70%
    04:00 +8°C° 0 mm 0 m/s 761 mmHg 70%
    05:00 +8°C° 0 mm 0 m/s 761 mmHg 71%
    06:00 +8°C° 0 mm 0 m/s 761 mmHg 72%
    07:00 +10°C° 0 mm 0 m/s 761 mmHg 62%
    08:00 +12°C° 0 mm 0 m/s 762 mmHg 53%
    09:00 +15°C° 0 mm 0 m/s 762 mmHg 44%
    10:00 +18°C° 0 mm 1 m/s 762 mmHg 40%
    11:00 +20°C° 0 mm 1 m/s 762 mmHg 35%
    12:00 +21°C° 0 mm 1 m/s 762 mmHg 31%
    13:00 +20°C° 0 mm 2 m/s 762 mmHg 31%
    14:00 +20°C° 0 mm 3 m/s 761 mmHg 31%
    15:00 +21°C° 0 mm 3 m/s 761 mmHg 31%
    16:00 +19°C° 0 mm 3 m/s 761 mmHg 39%
    17:00 +17°C° 0 mm 3 m/s 761 mmHg 47%
    18:00 +14°C° 0 mm 3 m/s 761 mmHg 55%
    19:00 +13°C° 0 mm 3 m/s 762 mmHg 60%
    20:00 +13°C° 0 mm 2 m/s 762 mmHg 65%
    21:00 +12°C° 0 mm 2 m/s 762 mmHg 70%
    22:00 +12°C° 0 mm 2 m/s 762 mmHg 71%
    23:00 +10°C° 0 mm 2 m/s 762 mmHg 73%
    Arată mai mult